Location: Arthez
(43.0833°N, 0.2500°W)
Time: 02:18:29
(UTC+00:00)

Cosmos 1844 - Pass Details

Date: 23 October 2021
Orbit: 822 x 868 km, 70.9° (Epoch: 27 November)

Event Time Altitude Azimuth Distance (km) Brightness Sun altitude
Rises 18:27:02 0° 341° (NNW) 3,462 7.1 -15.5°
Reaches altitude 10° 18:29:43 10° 349° (N) 2,518 6.3 -16.0°
Maximum altitude 18:35:03 37° 56° (NE) 1,326 4.3 -17.0°
Enters shadow 18:37:03 28° 96° (E) 1,548 4.5 -17.4°
